This is the latest recevied weather packets stored in our database for station/object WX4SGA. If no packets are shown the sender has not sent any weather packets the latest 10 day(s).
| Time | Temp. | Humidity | Pressure | Rain* | Wind** | Luminosity | Snow |
|---|---|---|---|---|---|---|---|
| 1788274832 | 27.78° C | 87% | 1019.6 hPa | 0 mm | - | 699 W/m² | - |
| 1788274530 | 28.33° C | 85% | 1019.6 hPa | 0 mm | - | 701 W/m² | - |
| 1788274234 | 28.33° C | 84% | 1019.6 hPa | 0 mm | - | 660 W/m² | - |
| 1788273920 | 27.78° C | 85% | 1019.6 hPa | 0 mm | - | 675 W/m² | - |
| 1788273615 | 28.33° C | 84% | 1019.6 hPa | 0 mm | - | 667 W/m² | - |
| 1788273326 | 27.22° C | 88% | 1019.6 hPa | 0 mm | - | 678 W/m² | - |
| 1788273008 | 26.67° C | 91% | 1019.6 hPa | 0 mm | - | 494 W/m² | - |
| 1788272701 | 26.67° C | 92% | 1019.6 hPa | 0 mm | - | 289 W/m² | - |
| 1788272396 | 26.11° C | 93% | 1019.6 hPa | 0 mm | - | 533 W/m² | - |
| 1788272096 | 26.11° C | 94% | 1019.6 hPa | 0 mm | - | 393 W/m² | - |
| 1788271791 | 25.56° C | 95% | 1019.6 hPa | 0 mm | - | 125 W/m² | - |
| 1788271489 | 25.56° C | 96% | 1019.6 hPa | 0 mm | - | 130 W/m² | - |
| 1788271184 | 25° C | 97% | 1019.6 hPa | 0 mm | - | 136 W/m² | - |
| 1788270878 | 25° C | 97% | 1019.6 hPa | 0 mm | - | 97 W/m² | - |
| 1788270575 | 24.44° C | 99% | 1019.6 hPa | 0 mm | - | 144 W/m² | - |
| 1788270270 | 25° C | 99% | 1019.6 hPa | 0 mm | - | 136 W/m² | - |
| 1788269970 | 24.44° C | 99% | 1019.6 hPa | 0 mm | - | 154 W/m² | - |
| 1788269669 | 24.44° C | 99% | 1019.6 hPa | 0 mm | - | 111 W/m² | - |
| 1788269367 | 24.44° C | 99% | 1019.6 hPa | 0 mm | - | 155 W/m² | - |
| 1788269063 | 24.44° C | 99% | 1019.3 hPa | 0 mm | - | 179 W/m² | - |
| 1788268762 | 24.44° C | 99% | 1019.3 hPa | 0 mm | - | 110 W/m² | - |
| 1788268461 | 23.89° C | 99% | 1019.3 hPa | 0 mm | - | 131 W/m² | - |
| 1788268161 | 23.89° C | 99% | 1019.3 hPa | 0 mm | - | 146 W/m² | - |
| 1788267852 | 23.89° C | 99% | 1019.6 hPa | 0 mm | - | 129 W/m² | - |
| 1788267550 | 23.89° C | 99% | 1019.6 hPa | 0 mm | - | 109 W/m² | - |
* Rain latest hour (hover to see other rain measurements)
** Current wind speed in m/s (hover to see current wind gust speed)